Date,TemperatureHighF,TemperatureAvgF,TemperatureLowF,DewpointHighF,DewpointAvgF,DewpointLowF,HumidityHigh,HumidityAvg,HumidityLow,PressureMaxIn,PressureMinIn,WindSpeedMaxMPH,WindSpeedAvgMPH,GustSpeedMaxMPH,PrecipitationSumIn
2013-1-1,42,37,33,41,36,31,96,94,90,30.24,30.02,8,1,10,0.31
2013-1-2,38,34,32,37,31,29,94,88,78,30.24,30.04,7,2,11,0.02
2013-1-3,37,31,24,30,27,22,93,84,56,30.38,30.21,7,1,10,0.00
2013-1-4,35,29,21,25,22,18,92,76,64,30.47,30.38,8,3,12,0.00
2013-1-5,42,30,18,32,25,16,100,82,58,30.54,30.33,2,0,4,0.01
2013-1-6,39,36,33,35,33,29,94,88,71,30.36,30.17,8,1,10,0.01
2013-1-7,42,33,24,31,27,22,93,79,59,30.52,30.32,7,1,11,0.00
2013-1-8,46,30,19,32,25,17,94,83,51,30.53,30.42,3,0,4,0.01
2013-1-9,48,38,26,46,35,25,95,92,77,30.58,30.46,2,0,4,0.03
2013-1-10,64,46,37,51,42,36,96,88,57,30.58,30.36,3,0,5,0.00
2013-1-11,56,51,45,53,49,42,96,91,79,30.35,30.11,4,0,12,0.10
2013-1-12,70,56,48,63,54,47,97,93,76,30.20,30.05,5,1,8,0.07
2013-1-13,67,53,42,59,50,41,97,90,69,30.13,30.00,1,0,3,0.17
2013-1-14,57,48,38,56,46,37,96,93,90,30.32,30.07,6,1,9,1.11
2013-1-15,46,43,39,45,42,37,96,95,93,30.24,30.03,5,1,11,1.42
2013-1-16,52,46,42,51,45,40,97,95,90,30.08,29.96,6,1,8,0.61
2013-1-17,44,38,32,42,36,31,95,92,76,30.13,30.01,5,1,10,0.47
2013-1-18,34,29,22,30,26,20,94,89,83,30.61,30.36,6,1,0,0.13
2013-1-19,40,27,17,33,24,16,100,91,73,30.55,30.27,3,1,0,0.42
2013-1-20,46,32,22,36,28,21,95,87,64,30.27,30.18,5,2,3,0.07
2013-1-21,42,31,21,30,20,10,94,69,38,30.19,30.06,9,3,15,0.01
2013-1-22,25,20,15,11,3,-3,57,46,31,30.38,30.17,11,6,22,0.00
2013-1-23,34,23,15,22,12,3,88,62,47,30.45,30.16,7,2,11,0.00
2013-1-24,36,24,16,27,13,2,87,62,37,30.56,30.13,12,4,16,0.00
2013-1-25,32,24,18,30,18,7,95,80,52,30.52,30.19,4,1,6,0.00
2013-1-26,34,31,24,31,27,22,95,83,74,30.47,30.22,7,3,13,0.00
2013-1-27,43,30,18,31,24,16,93,79,50,30.56,30.46,3,0,7,0.25
2013-1-28,41,34,33,36,32,31,94,93,83,30.47,30.42,2,0,3,0.06
2013-1-29,66,49,41,54,46,40,96,89,62,30.30,29.99,4,0,4,0.06
2013-1-30,58,52,43,57,50,41,96,94,91,29.99,29.48,6,1,12,2.19
2013-1-31,44,33,29,42,25,20,93,74,61,30.03,29.49,13,6,21,0.17
2013-2-1,34,20,12,29,12,2,93,71,50,30.48,29.95,13,4,16,0.00
2013-2-2,27,20,10,26,17,8,94,89,61,30.47,30.17,5,0,9,0.01
2013-2-3,34,30,27,30,27,20,94,87,71,30.19,29.99,9,4,15,0.07
2013-2-4,38,28,14,28,22,12,92,79,52,30.23,30.06,5,0,7,0.17
2013-2-5,32,32,31,30,29,28,91,89,88,30.06,30.02,1,0,2,0.00
2013-2-6,49,36,27,34,30,26,95,80,49,30.33,30.08,5,1,2,0.00
2013-2-7,50,38,28,39,33,26,94,82,61,30.33,30.05,5,1,7,0.00
2013-2-8,49,40,34,43,35,27,95,83,65,30.27,29.96,11,4,15,0.13
2013-2-9,48,34,25,27,24,20,90,68,34,30.41,30.27,8,2,10,0.00
2013-2-10,58,40,24,39,27,16,94,68,19,30.42,30.11,8,2,14,0.12
2013-2-11,54,46,37,50,43,32,96,90,69,30.11,30.00,6,1,8,0.11
2013-2-12,52,41,29,35,29,24,90,64,37,30.20,29.96,7,2,9,0.00
2013-2-13,46,39,35,43,36,31,94,89,82,29.98,29.65,11,2,13,0.35
2013-2-14,47,36,27,32,29,25,93,78,53,30.13,29.97,6,2,10,0.00
2013-2-15,52,34,24,39,30,22,100,86,54,30.17,30.02,9,2,13,0.15
2013-2-16,32,29,24,30,23,14,93,78,58,30.12,29.99,9,3,14,0.01
2013-2-17,31,22,17,17,13,7,92,68,37,30.35,30.08,12,5,18,0.00
2013-2-18,51,30,14,34,22,12,91,75,42,30.46,30.13,3,1,7,0.01
2013-2-19,47,38,32,42,29,16,94,72,37,30.13,29.91,10,3,22,0.17
2013-2-20,40,31,23,17,15,10,77,53,32,30.28,30.11,10,4,17,0.00
2013-2-21,49,32,17,33,21,14,89,66,32,30.35,30.18,2,0,4,0.05
2013-2-22,53,43,36,44,38,33,93,83,69,30.27,30.07,6,1,10,0.21
2013-2-23,57,45,38,47,41,36,94,86,65,30.10,29.85,3,0,7,0.03
2013-2-24,50,40,27,41,29,22,87,67,35,30.14,29.89,9,3,13,0.00
2013-2-25,51,36,24,32,26,21,92,70,44,30.18,30.06,6,1,9,0.00
2013-2-26,47,39,34,41,34,24,94,82,62,30.08,29.57,11,4,17,0.44
2013-2-27,40,38,36,38,34,32,94,86,78,29.85,29.68,7,2,13,0.03
2013-2-28,36,33,31,32,28,24,91,80,66,29.99,29.78,9,5,13,0.02
2013-3-1,38,34,31,32,30,28,92,85,72,30.01,29.94,6,2,13,0.10
2013-3-2,33,30,25,29,24,17,87,79,70,30.08,29.94,8,2,11,0.00
2013-3-3,29,26,23,22,19,17,86,77,67,30.14,30.06,7,3,13,0.00
2013-3-4,46,32,24,29,21,16,85,65,35,30.27,30.13,8,2,12,0.00
2013-3-5,44,38,30,43,35,27,95,88,77,30.13,29.65,11,1,16,0.99
2013-3-6,34,29,27,30,26,23,92,87,82,30.28,29.75,8,5,13,0.01
2013-3-7,34,31,29,28,26,24,88,81,72,30.41,30.26,6,3,11,0.03
2013-3-8,43,34,26,30,26,24,91,76,57,30.47,30.37,8,2,14,0.02
2013-3-9,65,40,23,35,28,19,94,69,18,30.43,30.26,3,0,6,0.00
2013-3-10,69,50,33,40,35,30,93,61,28,30.30,30.11,7,2,11,0.00
2013-3-11,58,51,41,50,44,36,94,78,66,30.14,29.84,9,2,13,0.39
2013-3-12,49,42,30,47,37,28,95,84,60,30.09,29.81,7,2,12,0.18
2013-3-13,37,32,28,31,26,18,93,78,57,30.32,30.08,10,4,19,0.05
2013-3-14,44,32,25,23,18,15,79,59,32,30.42,30.27,8,4,14,0.00
2013-3-15,57,39,22,38,29,20,92,70,46,30.31,29.97,7,2,12,0.00
2013-3-16,69,51,35,55,44,32,95,80,48,29.97,29.73,8,2,16,0.13
2013-3-17,56,49,44,50,46,39,96,90,80,30.05,29.90,8,2,15,0.14
2013-3-18,50,42,39,42,38,35,95,86,69,30.05,29.86,8,3,14,0.82
2013-3-19,54,44,32,44,28,8,95,60,20,30.13,29.88,12,5,19,0.16
2013-3-20,50,38,27,30,18,12,89,48,24,30.15,29.88,11,4,19,0.00
2013-3-21,33,26,19,26,14,10,77,61,44,30.11,29.91,10,5,15,0.00
2013-3-22,46,29,12,24,15,10,91,62,29,30.19,30.07,4,1,8,0.00
2013-3-23,50,39,30,37,29,22,90,69,49,30.13,29.93,4,0,5,0.00
2013-3-24,42,38,32,38,36,30,93,89,83,29.95,29.51,7,3,14,0.71
2013-3-25,37,32,30,35,29,26,94,88,76,29.96,29.55,11,4,14,0.22
2013-3-26,34,32,30,29,28,26,92,85,77,30.27,29.97,7,3,14,0.11
2013-3-27,32,31,30,28,26,24,88,82,78,30.31,30.27,6,2,9,0.00
2013-4-4,35,34,34,33,33,32,94,94,93,30.15,30.06,2,0,4,0.61
2013-4-5,58,43,35,41,35,31,96,79,38,30.15,30.03,8,2,13,0.29
2013-4-6,69,43,28,42,33,27,94,73,27,30.28,30.13,4,0,5,0.00
2013-4-7,70,53,36,46,40,33,91,66,37,30.20,30.07,7,2,12,0.00
2013-4-8,76,56,37,52,45,35,100,70,40,30.18,30.02,7,2,11,0.00
2013-4-9,80,61,42,57,49,40,94,69,36,30.21,30.06,7,2,15,0.00
2013-4-10,84,64,46,59,52,44,94,68,31,30.12,29.91,6,2,10,0.00
2013-4-11,82,64,48,60,53,46,94,70,36,29.93,29.68,6,1,9,0.17
2013-4-12,64,58,48,60,51,36,95,78,48,29.92,29.58,7,2,13,0.69
2013-4-13,68,52,36,43,37,31,93,62,27,30.09,29.92,9,3,14,0.00
2013-4-14,75,56,34,50,39,32,94,60,26,30.14,29.99,8,2,10,0.02
2013-4-15,66,57,49,56,51,47,94,83,66,30.20,30.00,6,2,11,0.16
2013-4-16,81,62,44,60,52,42,95,74,41,30.29,30.13,3,1,9,0.00
2013-4-17,67,59,52,61,57,50,95,91,77,30.29,30.13,5,0,6,0.91
2013-4-18,78,63,48,62,54,47,96,76,45,30.13,29.89,10,2,12,0.01
2013-4-19,70,58,43,63,54,37,92,85,74,29.99,29.64,7,2,10,0.40
2013-4-20,57,45,34,37,31,26,85,61,32,30.35,29.99,8,4,17,0.00
2013-4-21,63,46,30,37,32,28,93,62,31,30.51,30.36,4,1,7,0.00
2013-4-22,65,49,35,40,36,31,92,64,31,30.46,30.24,5,1,11,0.00
2013-4-23,72,52,32,49,38,29,92,62,27,30.30,30.06,4,1,9,0.00
2013-4-24,74,55,40,59,48,38,98,79,46,30.14,29.95,12,2,21,0.09
2013-4-25,62,48,34,40,35,27,92,66,28,30.39,30.22,6,2,0,0.00
2013-4-26,67,51,31,44,35,28,93,61,24,30.48,30.34,3,1,0,0.00
2013-4-27,63,54,48,52,48,44,94,79,57,30.40,30.21,3,0,0,0.20
2013-4-28,57,52,48,54,50,47,95,94,89,30.22,29.98,2,0,2,0.57
2013-4-29,65,56,49,57,52,47,96,88,69,30.07,29.99,4,1,6,0.03
2013-4-30,79,60,43,60,51,41,96,76,36,30.17,30.02,3,0,8,0.00
2013-5-1,70,61,50,56,52,48,94,74,54,30.28,30.17,5,2,11,0.00
2013-5-2,69,60,55,56,52,49,84,75,60,30.30,30.20,5,2,10,0.00
2013-5-3,59,56,55,52,50,49,84,79,77,30.23,30.17,4,1,8,0.00
2013-5-4,62,54,47,48,42,37,76,64,40,30.11,30.00,5,3,0,0.00
2013-5-5,54,51,46,50,44,33,92,76,53,30.07,29.90,7,4,14,0.16
2013-5-6,63,55,47,57,51,45,94,88,77,29.93,29.84,7,2,15,0.44
2013-5-7,62,54,48,55,50,47,95,89,69,29.98,29.89,7,1,11,0.05
2013-5-8,62,55,50,58,53,48,95,92,82,30.07,29.93,5,1,10,0.27
2013-5-9,73,59,52,62,55,50,96,88,57,30.15,30.05,4,1,10,0.08
2013-5-10,77,61,50,63,56,49,96,85,53,30.12,29.95,5,1,10,0.01
2013-5-11,71,60,55,62,57,51,96,90,66,29.98,29.83,7,1,10,0.23
2013-5-12,58,50,39,51,40,32,93,71,39,30.14,29.92,8,3,15,0.07
2013-5-13,60,46,32,42,33,27,95,66,29,30.25,30.14,7,2,13,0.00
2013-5-14,73,52,31,54,41,29,95,71,39,30.31,30.06,5,1,8,0.00
2013-5-15,83,64,47,64,55,45,96,76,47,30.14,29.95,5,1,10,0.00
2013-5-16,78,63,49,62,56,47,96,80,48,30.05,29.97,4,1,8,0.00
2013-5-17,81,64,52,64,58,50,95,82,48,30.12,30.03,3,0,5,0.18
2013-5-18,70,63,58,66,61,56,96,93,86,30.13,30.03,1,0,1,0.03
2013-5-19,79,65,60,70,62,58,96,90,68,30.09,29.98,4,0,4,1.24
2013-5-20,74,64,59,69,62,57,96,93,82,30.15,30.03,2,0,4,0.53
2013-5-21,84,68,57,72,63,55,96,85,58,30.09,29.91,5,0,10,0.01
2013-5-22,83,67,56,70,61,54,95,83,56,29.98,29.86,4,1,6,0.01
2013-5-23,77,65,58,67,60,56,96,86,58,29.95,29.84,7,1,8,0.17
2013-5-24,61,55,42,56,46,38,92,75,44,30.28,29.94,9,4,16,0.13
2013-5-25,66,51,37,46,40,33,95,71,30,30.41,30.27,7,2,12,0.00
2013-5-26,70,58,49,54,48,45,92,73,48,30.32,30.22,6,1,11,0.00
2013-5-27,80,63,46,64,54,44,95,76,49,30.29,30.10,3,0,8,0.00
2013-5-28,82,67,52,66,59,51,95,78,48,30.21,30.08,5,1,10,0.00
2013-5-29,85,68,53,67,60,51,96,78,44,30.23,30.11,3,0,6,0.00
2013-5-30,87,70,54,69,60,52,95,75,44,30.25,30.09,3,0,4,0.00
2013-5-31,86,70,54,70,62,53,95,77,49,30.20,30.04,4,0,6,0.00
2013-6-1,88,72,59,70,63,57,95,77,45,30.10,29.93,4,0,7,0.00
2013-6-2,68,65,62,66,63,60,95,93,90,30.00,29.88,2,0,2,1.39
2013-6-3,76,67,60,67,62,57,96,85,57,30.02,29.88,8,1,14,0.31
2013-6-4,80,65,52,66,58,51,96,81,52,30.09,30.00,2,0,6,0.00
2013-6-5,83,68,54,70,61,52,96,82,55,30.12,29.94,3,0,5,0.02
2013-6-6,79,69,62,70,65,60,95,86,68,29.99,29.76,3,0,6,0.01
2013-6-7,74,66,60,67,63,58,95,90,69,29.87,29.69,5,0,9,0.05
2013-6-8,80,66,58,67,61,56,95,84,52,30.11,29.85,3,0,7,0.05
2013-6-9,85,68,57,71,62,55,95,85,51,30.17,30.01,3,0,5,0.19
2013-6-10,78,68,64,70,65,62,95,90,63,30.04,29.86,4,0,8,0.58
2013-6-11,78,67,60,69,63,58,95,87,65,30.03,29.90,5,1,10,0.32
2013-6-12,88,72,58,77,67,57,95,84,56,30.05,29.89,5,1,10,0.00
2013-6-13,80,70,60,73,66,56,95,88,75,29.90,29.67,9,2,23,0.69
2013-6-14,73,63,55,62,57,53,95,82,57,30.10,29.86,5,1,8,0.00
2013-6-15,81,64,51,66,57,49,96,81,50,30.20,30.06,4,0,9,0.01
2013-6-16,80,67,56,70,63,54,95,85,66,30.14,30.01,3,0,8,0.00
2013-6-17,80,69,64,73,66,62,95,91,72,30.04,29.92,3,0,7,1.14
2013-6-18,70,66,60,67,64,58,95,93,86,29.97,29.84,3,0,4,0.86
2013-6-19,78,66,57,69,62,56,98,89,67,30.13,29.96,2,0,0,0.01
2013-6-20,83,68,57,71,62,56,96,85,54,30.22,30.13,1,0,5,0.01
2013-6-21,85,70,59,71,64,58,95,82,49,30.26,30.14,2,0,4,0.00
2013-6-22,84,69,57,68,61,55,95,77,42,30.25,30.10,1,0,4,0.00
2013-6-23,86,70,57,72,63,55,95,80,45,30.22,30.10,3,0,6,0.00
2013-6-24,81,70,62,73,66,60,95,86,69,30.21,30.08,3,0,6,0.00
2013-6-25,80,70,62,74,67,61,95,90,79,30.15,30.00,3,0,5,0.10
2013-6-26,79,70,63,74,67,61,95,91,81,30.04,29.90,4,0,5,0.07
2013-6-27,74,68,64,71,66,63,95,94,89,29.92,29.76,2,0,4,0.31
2013-6-28,82,71,62,74,68,60,96,90,71,29.80,29.61,4,0,6,0.02
2013-6-29,82,69,60,69,64,58,95,83,51,29.73,29.64,4,1,7,0.01
2013-6-30,85,70,58,71,62,56,95,80,42,29.82,29.71,3,0,5,0.00
2013-7-1,82,70,64,73,66,62,95,87,63,29.95,29.79,4,0,4,0.01
2013-7-2,82,70,63,73,67,62,96,88,66,30.11,29.93,3,0,5,0.00
2013-7-3,73,67,64,70,65,62,96,94,91,30.21,30.10,2,0,5,0.01
2013-7-4,80,70,63,74,67,62,96,91,74,30.23,30.14,5,0,6,0.25
2013-7-5,81,72,64,75,68,63,96,90,72,30.20,30.11,2,0,5,0.04
2013-7-6,84,72,64,74,68,62,95,85,58,30.20,30.07,3,0,5,0.04
2013-7-7,74,70,67,71,68,65,95,93,86,30.17,30.08,6,0,10,0.55
2013-7-8,84,71,65,74,66,62,95,86,57,30.22,30.11,4,0,5,0.00
2013-7-9,86,73,63,76,68,61,95,85,62,30.18,30.05,3,0,9,0.00
2013-7-10,83,72,67,75,69,65,95,90,71,30.10,29.94,4,0,4,0.07
2013-7-11,78,72,67,73,69,65,95,91,79,29.97,29.87,2,0,3,0.01
2013-7-12,79,69,62,70,65,60,95,85,64,30.03,29.91,5,0,8,0.01
2013-7-13,81,70,60,70,64,58,95,83,59,30.13,30.02,2,1,7,0.00
2013-7-14,83,73,68,73,69,65,94,87,64,30.29,30.11,3,0,5,0.08
2013-7-15,86,73,62,74,67,61,95,83,59,30.34,30.24,2,0,6,0.00
2013-7-16,88,74,61,76,68,59,95,83,57,30.36,30.23,1,0,3,0.00
2013-7-17,85,74,66,76,70,64,95,88,71,30.30,30.15,2,0,6,0.03
2013-7-18,89,75,68,79,70,66,95,88,61,30.22,30.06,2,0,6,0.02
2013-7-19,85,74,68,77,71,66,95,90,70,30.11,29.97,3,0,5,0.07
2013-7-20,85,72,66,76,69,64,96,90,67,30.03,29.90,4,0,6,1.69
2013-7-21,80,71,66,76,69,65,96,93,80,30.01,29.93,3,0,8,0.52
2013-7-22,83,72,67,74,69,65,95,90,71,29.99,29.81,3,0,6,0.15
2013-7-23,81,72,67,74,69,65,95,89,73,29.87,29.77,3,0,8,0.37
2013-7-24,81,73,66,73,68,64,95,86,64,29.89,29.79,5,0,7,0.00
2013-7-25,79,68,59,67,62,56,95,80,54,30.08,29.89,4,1,7,0.00
2013-7-26,84,68,54,71,62,52,95,82,57,30.10,30.00,3,0,6,0.10
2013-7-27,76,69,65,71,66,63,95,92,82,30.04,29.89,1,0,1,0.07
2013-7-28,81,69,58,69,64,56,95,86,60,30.06,29.91,3,0,7,0.23
2013-7-29,77,64,52,63,57,50,95,81,47,30.25,30.06,4,1,7,0.00
2013-7-30,59,55,54,58,53,52,95,94,92,30.27,30.23,0,0,1,0.00
2013-7-31,67,64,60,65,62,58,95,94,90,30.20,30.00,0,0,0,0.58
2013-8-1,79,72,64,71,67,62,96,85,70,29.99,29.91,7,1,10,0.04
2013-8-2,80,68,59,69,63,58,95,85,60,30.07,29.97,2,0,4,0.01
2013-8-3,82,69,59,71,65,57,95,87,66,30.06,29.96,3,0,4,0.00
2013-8-4,79,70,60,67,64,58,95,83,53,30.08,29.97,5,1,10,0.38
2013-8-5,82,67,57,69,61,56,95,82,53,30.10,29.98,2,0,4,0.00
2013-8-6,82,69,60,72,65,58,94,86,65,30.04,29.97,1,0,3,0.00
2013-8-7,78,70,66,73,67,64,94,91,81,30.05,29.99,2,0,5,0.81
2013-8-8,79,72,67,74,69,65,95,92,83,30.04,29.98,2,0,3,0.04
2013-8-9,85,74,66,76,70,65,95,89,70,30.08,29.97,4,0,7,0.10
2013-8-10,76,71,68,74,69,66,95,93,91,30.12,30.06,1,0,4,0.40
2013-8-11,80,72,68,75,69,66,95,92,81,30.16,30.04,4,0,6,0.20
2013-8-12,79,72,66,74,69,64,95,91,79,30.10,29.96,3,0,5,1.26
2013-8-13,75,69,64,72,67,61,95,93,88,29.99,29.85,5,0,8,0.24
2013-8-14,72,64,54,61,57,52,94,80,52,30.14,29.93,5,1,8,0.00
2013-8-15,76,61,50,65,56,48,95,85,63,30.17,30.06,2,0,4,0.00
2013-8-16,78,64,52,67,58,50,95,84,58,30.17,30.07,2,0,5,0.01
2013-8-17,72,63,53,64,58,52,95,86,71,30.21,30.14,4,1,7,0.04
2013-8-18,79,68,62,70,64,60,94,89,68,30.21,30.11,2,0,4,0.43
2013-8-19,77,68,64,71,66,62,94,91,79,30.18,30.07,2,0,3,0.06
2013-8-20,81,71,63,73,67,62,94,89,72,30.18,30.09,2,0,4,0.00
2013-8-21,80,70,61,74,66,59,94,90,76,30.22,30.11,6,0,10,0.66
2013-8-22,81,68,60,74,65,58,95,90,72,30.19,30.05,2,0,7,0.06
2013-8-23,79,68,63,73,65,61,95,91,75,30.12,30.00,3,0,8,0.27
2013-8-24,77,67,57,66,60,54,94,82,57,30.33,30.12,2,0,9,0.01
2013-8-25,77,63,52,66,58,50,94,83,51,30.42,30.28,2,0,4,0.00
2013-8-26,79,65,54,70,61,52,95,87,71,30.36,30.15,1,0,5,0.00
2013-8-27,81,69,61,73,66,59,94,89,69,30.18,30.03,3,0,9,0.01
2013-8-28,84,73,66,75,69,64,93,87,70,30.07,29.93,3,0,1,0.01
2013-8-29,84,74,67,74,70,64,93,85,63,29.99,29.92,4,0,7,0.01
2013-8-30,85,72,63,74,67,61,94,85,61,30.03,29.90,3,0,6,0.00
2013-8-31,79,69,65,73,66,62,93,91,82,29.96,29.88,5,0,8,0.57
2013-9-1,73,68,64,70,65,62,94,92,89,29.94,29.84,1,0,2,1.07
2013-9-2,83,72,66,75,68,63,93,87,71,29.94,29.81,4,0,6,0.04
2013-9-3,79,69,58,69,64,55,93,84,58,30.04,29.81,7,1,10,0.01
2013-9-4,79,64,55,68,59,53,94,84,61,30.17,30.03,2,0,5,0.01
2013-9-5,78,64,54,67,58,52,94,84,58,30.21,30.12,3,0,4,0.00
2013-9-6,80,65,56,69,60,54,94,85,60,30.22,30.09,2,0,5,0.01
2013-9-7,80,66,55,69,61,53,93,85,60,30.14,30.00,3,0,5,0.00
2013-9-8,80,67,59,71,63,57,93,87,66,30.04,29.97,2,0,4,0.00
2013-9-9,83,70,62,74,65,59,93,86,65,30.16,30.05,1,0,2,0.01
2013-9-10,83,71,62,74,66,60,92,85,69,30.25,30.13,2,0,5,0.00
2013-9-11,83,72,65,74,67,62,92,85,70,30.23,30.09,5,0,10,0.00
2013-9-12,83,70,64,74,66,61,92,87,72,30.10,29.88,3,0,7,0.41
2013-9-13,70,66,64,63,61,55,92,87,61,29.91,29.85,6,1,11,0.00
2013-9-14,70,56,44,59,50,42,94,82,54,30.17,30.00,1,0,0,0.00
2013-9-15,75,58,46,64,53,44,94,85,55,30.25,30.14,2,0,4,0.01
2013-9-16,72,60,53,64,57,50,94,88,75,30.26,30.15,5,0,6,0.00
2013-9-17,72,59,48,61,53,46,94,83,60,30.32,30.24,3,1,9,0.01
2013-9-18,70,59,50,61,55,48,93,88,66,30.29,30.19,2,0,6,0.01
2013-9-19,67,63,61,64,61,59,92,91,90,30.20,30.10,0,0,0,0.59
2013-9-20,78,67,62,71,64,60,93,89,77,30.11,29.92,3,0,5,0.01
2013-9-21,66,62,58,64,60,56,92,91,89,29.92,29.75,3,0,4,0.49
2013-9-22,68,58,50,60,54,48,93,86,64,29.99,29.82,4,0,6,0.00
2013-9-23,71,56,45,60,52,43,93,86,63,30.09,29.99,4,0,9,0.01
2013-9-24,73,58,49,64,54,47,93,87,64,30.12,29.94,2,0,4,0.01
2013-9-25,66,60,54,62,57,51,92,90,85,29.97,29.87,2,0,8,0.07
2013-9-26,71,61,53,61,56,50,92,85,61,30.08,29.91,2,0,4,0.01
2013-9-27,72,59,51,64,54,48,93,85,61,30.20,30.08,1,0,3,0.00
2013-9-28,72,57,46,62,53,44,96,86,64,30.28,30.16,2,0,4,0.00
2013-9-29,51,50,48,49,47,46,92,92,91,30.21,30.19,0,0,0,0.00
2013-9-30,70,60,53,62,56,50,92,87,71,30.12,30.01,1,0,0,0.00
2013-10-1,74,60,52,64,56,50,92,86,65,30.19,30.08,2,0,0,0.01
2013-10-2,74,60,52,65,56,49,93,87,71,30.23,30.10,1,0,0,0.01
2013-10-3,76,62,54,67,58,51,91,87,69,30.18,30.08,1,0,3,0.00
2013-10-4,78,63,56,68,59,53,92,86,66,30.22,30.10,3,0,7,0.00
2013-10-5,76,64,56,68,60,53,92,86,75,30.20,30.03,1,0,2,0.01
2013-10-6,77,64,56,69,60,53,91,85,68,30.06,29.86,1,0,3,0.00
2013-10-7,65,58,45,60,52,42,92,83,59,30.14,29.80,6,1,8,0.73
2013-10-8,64,51,38,53,45,36,93,81,54,30.27,30.12,5,1,10,0.01
2013-10-9,65,50,39,50,44,37,93,80,51,30.31,30.19,3,0,13,0.00
2013-10-10,66,50,37,58,46,35,93,85,65,30.22,30.11,2,0,5,0.00
2013-10-11,72,58,45,57,50,43,92,78,43,30.12,30.01,6,1,11,0.01
2013-10-12,68,61,55,61,57,52,89,86,75,30.14,30.02,3,0,6,0.00
2013-10-13,70,61,55,64,57,52,92,87,78,30.25,30.14,2,0,4,0.01
2013-10-14,72,62,53,62,57,50,89,83,65,30.27,30.16,2,0,8,0.00
2013-10-15,70,57,47,60,52,44,92,83,59,30.22,30.06,2,0,2,0.00
2013-10-16,67,57,47,59,53,45,91,86,74,30.10,30.00,3,0,4,0.00
2013-10-17,64,59,52,60,55,47,89,88,83,30.01,29.84,8,1,11,0.15
2013-10-18,62,48,39,52,44,36,92,85,58,30.12,30.00,2,0,5,0.01
2013-10-19,59,51,46,52,47,41,91,85,74,30.04,29.91,7,1,15,0.00
2013-10-20,59,44,32,44,37,30,92,80,44,30.17,30.03,2,0,6,0.00
2013-10-21,64,45,31,49,39,29,93,82,47,30.22,30.06,4,0,11,0.00
2013-10-22,58,50,41,51,46,39,92,86,73,30.08,29.86,4,1,7,0.07
2013-10-23,50,44,37,47,40,34,92,86,70,30.10,29.78,8,2,14,0.10
2013-10-24,45,38,30,38,34,28,92,86,69,30.27,30.09,5,1,7,0.06
2013-10-25,39,35,28,35,30,26,91,83,68,30.49,30.27,5,1,8,0.01
2013-10-26,53,36,22,39,29,20,92,78,42,30.44,30.17,5,1,11,0.01
2013-10-27,62,48,34,46,40,32,91,76,50,30.20,30.09,6,1,9,0.00
2013-10-28,59,50,43,55,47,40,92,89,82,30.31,30.17,2,0,3,0.03
2013-10-29,66,56,52,56,52,49,92,85,59,30.37,30.26,3,0,7,0.04
2013-10-30,66,57,51,60,53,48,91,88,79,30.30,30.18,3,0,7,0.45
2013-10-31,65,57,51,60,53,48,91,88,75,30.18,29.70,1,0,2,0.00
2013-11-1,70,60,46,58,53,43,90,80,50,29.80,29.66,6,1,10,0.24
2013-11-2,57,47,39,47,39,34,97,76,45,30.08,29.77,9,2,17,0.00
2013-11-3,52,42,31,40,35,28,96,77,51,30.45,30.08,5,1,8,0.00
2013-11-4,57,40,27,38,32,25,93,74,40,30.57,30.44,3,0,6,0.00
2013-11-5,61,45,36,38,34,29,90,69,31,30.58,30.43,3,0,8,0.00
2013-11-6,70,50,35,54,43,33,93,81,52,30.45,30.14,4,0,4,0.00
2013-11-7,53,45,36,50,41,30,91,84,63,30.26,30.04,10,2,15,0.29
2013-11-8,47,36,26,32,27,23,90,72,41,30.42,30.26,9,3,15,0.00
2013-11-9,53,35,23,33,27,21,92,75,39,30.43,30.30,4,0,6,0.00
2013-11-10,60,40,27,41,29,24,93,70,29,30.40,30.25,9,2,16,0.00
2013-11-11,60,38,24,32,26,20,92,67,23,30.41,30.22,3,1,5,0.00
2013-11-12,47,34,27,40,27,16,85,75,62,30.60,30.17,6,2,10,0.01
2013-11-13,37,28,20,22,19,17,92,70,51,30.70,30.58,8,1,12,0.00
2013-11-14,50,29,16,26,20,14,98,74,30,30.61,30.41,4,1,6,0.00
2013-11-15,53,36,22,45,31,19,93,82,38,30.44,30.29,3,0,4,0.18
2013-11-16,63,48,41,54,45,39,94,88,68,30.31,30.17,3,0,4,0.00
2013-11-17,67,51,39,58,48,37,93,88,68,30.21,29.86,1,0,2,0.26
2013-11-18,60,51,40,56,35,29,90,54,35,30.12,29.87,10,4,13,0.19
2013-11-19,48,39,29,31,27,25,87,65,42,30.34,30.11,7,2,15,0.00
2013-11-20,50,39,33,31,28,26,83,67,41,30.48,30.32,6,1,8,0.00
2013-11-21,63,45,28,50,39,26,91,80,61,30.54,30.37,4,0,5,0.00
2013-11-22,58,53,47,54,49,44,92,88,82,30.39,30.18,6,0,14,0.23
2013-11-23,52,41,28,49,34,16,92,76,58,30.39,30.19,9,4,19,0.00
2013-11-24,28,23,16,18,11,2,82,60,35,30.63,30.38,10,4,13,0.00
2013-11-25,40,28,16,30,15,5,92,62,24,30.63,30.35,3,0,4,0.00
2013-11-26,44,38,32,42,36,28,93,92,86,30.35,29.75,8,1,10,2.04
2013-11-27,38,28,23,35,24,15,91,83,71,30.34,29.77,9,4,13,0.02
2013-11-28,32,24,16,24,18,13,91,80,65,30.60,30.34,6,1,7,0.05
2013-11-29,38,25,16,29,21,13,92,86,64,30.73,30.60,3,0,4,0.01
2013-11-30,42,29,21,30,24,19,92,83,58,30.68,30.43,3,0,4,0.00
2013-12-1,46,32,19,36,28,17,92,84,61,30.43,30.12,3,0,8,0.01
2013-12-2,49,42,36,41,37,34,91,84,68,30.12,29.88,1,0,2,0.00
2013-12-3,58,44,37,48,40,34,92,85,68,29.98,29.90,2,0,3,0.00
2013-12-4,64,47,35,54,43,33,93,86,67,30.09,29.95,2,0,4,0.00
2013-12-5,61,49,40,54,45,38,92,88,77,30.11,30.00,1,0,2,0.00
2013-12-6,56,50,40,53,47,37,92,89,86,30.16,29.92,10,2,16,0.72
2013-12-7,40,36,33,37,32,29,90,87,82,30.51,30.16,6,2,9,0.00
2013-12-8,38,37,35,35,33,31,92,88,84,30.46,30.18,8,3,15,0.50
2013-12-9,47,42,37,44,39,35,92,91,90,30.22,30.09,2,0,3,0.22
2013-12-10,41,33,22,39,30,20,92,87,75,30.42,30.01,8,2,17,0.25
2013-12-11,40,26,17,28,22,15,92,84,60,30.56,30.41,9,1,11,0.00
2013-12-12,33,27,19,23,17,4,84,66,30,30.56,30.46,8,3,15,0.00
2013-12-13,40,26,15,27,20,13,91,78,48,30.49,30.34,3,0,4,0.00
2013-12-14,40,37,33,38,33,24,92,85,62,30.35,29.83,5,0,8,0.67
2013-12-15,43,35,31,40,31,27,92,86,78,30.20,29.81,8,4,13,0.05
2013-12-16,42,32,27,36,28,25,92,86,69,30.29,30.17,6,2,8,0.00
2013-12-17,49,36,26,39,31,23,93,82,61,30.23,29.98,11,2,15,0.21
2013-12-18,39,30,24,26,23,20,92,75,51,30.38,30.22,8,2,12,0.00
2013-12-19,49,31,21,33,26,19,92,81,49,30.43,30.26,3,0,3,0.00
2013-12-20,54,38,28,40,33,26,93,83,53,30.29,30.17,1,0,2,0.00
2013-12-21,61,50,40,54,45,37,92,85,69,30.17,29.91,1,0,2,0.00
2013-12-22,60,54,50,57,51,48,92,90,89,30.09,29.89,8,0,8,1.16
2013-12-23,52,43,32,49,40,27,93,88,81,30.33,30.01,6,1,15,0.32
2013-12-24,32,27,17,27,21,14,88,76,61,30.56,30.32,8,3,11,0.00
2013-12-25,39,23,14,23,16,11,91,79,43,30.58,30.42,5,0,5,0.00
2013-12-26,41,28,20,28,22,18,92,82,54,30.50,30.40,6,1,9,0.00
2013-12-27,42,27,18,26,21,16,92,80,47,30.58,30.48,3,0,5,0.00
2013-12-28,44,30,19,35,26,17,92,85,61,30.54,30.21,2,0,4,0.28
2013-12-29,44,41,36,42,39,34,97,92,91,30.21,29.86,4,1,8,1.07
2013-12-30,40,36,32,38,33,30,91,89,84,30.25,30.04,6,2,0,0.01
2013-12-31,39,31,23,30,26,21,92,82,55,30.47,30.23,9,2,0,0.00
2014-1-1,42,28,20,29,23,18,92,83,53,30.46,30.20,3,0,8,0.00
2014-1-2,37,29,18,35,27,13,92,90,75,30.20,29.77,15,2,27,0.13